Helicity
97 112 113 102 83 70 80 94 89 86 88 80 80 98 98 107 129 162 134 109 64 97 173 179 162 148 196 202 164 139 207 134 133 126 99 77 81 75 89 87 66 80 96 91 132 145 87 75 106 105 86 62 77 66
144 136 107 112 108 113 98 84 86 80 85 87 92 88 84 59 97 109 86 82 114 121 141 186 133 148 130 130 152 152 102 105 101 145 116 103 122 119 120 93 107 103 99 110 100 109 86 32 57 90 109 105 125 141
153 112 112 117 104 97 98 84 80 76 104 96 90 75 90 56 112 103 87 82 120 147 202 190 211 196 170 149 114 130 145 102 118 116 104 126 131 122 127 101 127 73 112 142 131 68 54 39 54 84 129 145 128 121
116 109 103 103 108 114 98 101 115 127 143 119 118 114 113 121 136 154 128 68 97 136 120 183 219 203 263 175 132 116 112 181 160 146 143 134 145 97 125 126 111 99 134 113 99 63 88 69 77 72 94 101 116 141
125 113 116 117 103 102 110 115 136 154 159 137 154 161 150 147 173 305 95 51 82 73 101 164 179 216 247 174 170 178 191 173 148 150 144 128 126 139 155 150 98 141 117 130 117 101 98 83 69 73 81 101 106 163
117 122 122 115 124 127 119 151 158 139 119 161 162 146 147 166 196 127 101 122 163 109 66 136 136 182 230 231 262 243 194 161 141 126 127 137 146 155 161 119 117 109 86 93 97 92 80 74 77 93 106 132 178 247
105 112 117 118 126 104 107 158 162 190 168 144 140 155 128 93 158 133 101 161 185 136 109 127 131 162 165 159 159 176 182 148 143 141 166 169 161 158 163 143 141 126 105 83 95 79 84 113 111 142 196 273 374 429
153 137 130 139 179 134 107 142 163 193 176 145 146 146 113 100 101 202 267 257 171 102 124 101 117 113 141 123 126 146 136 142 166 151 144 153 154 160 135 163 143 128 112 90 128 92 101 147 186 212 246 335 489 539
159 183 155 150 194 172 126 136 138 146 141 133 117 115 149 163 149 156 234 202 155 111 112 107 81 67 90 98 109 116 132 139 122 157 166 135 160 213 175 136 138 129 67 47 119 175 206 227 209 232 316 426 541 498
175 146 151 185 219 174 218 131 145 169 164 137 119 135 144 148 185 160 135 128 141 146 127 95 84 90 90 106 130 127 138 142 140 157 146 188 244 218 180 133 97 110 149 108 80 133 176 216 255 278 268 235 202 207
198 154 119 138 196 225 169 165 158 178 156 131 142 149 122 141 96 103 111 117 136 123 114 108 110 110 126 123 139 139 144 141 127 152 160 185 230 206 159 161 139 121 120 132 146 172 166 143 153 179 181 164 161 143
304 240 186 161 146 163 164 152 193 146 113 81 44 84 132 148 125 121 143 123 120 95 117 124 147 172 176 145 151 143 165 157 167 177 193 186 183 171 191 150 116 86 46 38 38 44 58 70 68 67 48 9 -37 -51
358 328 291 265 210 172 159 150 140 105 129 148 131 124 109 127 147 125 100 116 123 134 145 143 165 151 148 150 161 138 147 202 181 199 222 229 198 200 151 140 136 110 110 104 97 76 49 17 -21 -31 -26 -6 11 28
270 270 304 291 217 187 197 207 158 120 130 114 120 159 148 147 153 177 167 147 131 124 127 134 141 121 123 136 143 162 173 179 197 190 200 225 170 135 124 131 125 129 121 98 86 59 45 35 26 26 35 39 40 45
142 242 269 394 291 168 181 207 170 106 111 129 143 143 163 139 163 141 138 128 133 123 139 156 171 150 144 143 145 160 172 191 176 185 169 147 139 118 114 125 138 130 94 83 57 52 47 51 50 45 59 60 67 72
54 91 211 241 182 155 112 155 166 146 133 152 201 158 119 159 166 169 176 171 165 169 152 141 128 114 126 141 162 160 173 178 151 139 125 108 90 75 83 71 92 92 80 77 77 69 53 45 46 52 63 92 89 79
102 118 263 197 101 94 112 73 102 151 180 222 250 241 201 197 160 116 89 76 61 84 99 96 133 130 131 151 175 171 167 111 86 92 73 66 64 62 59 59 82 111 111 97 76 78 87 82 79 99 108 94 77 75
75 153 171 132 57 84 107 96 78 90 139 119 106 111 113 125 115 122 113 108 110 120 133 148 121 175 182 170 141 106 101 91 102 109 112 98 88 95 96 115 124 122 113 105 100 105 110 102 96 79 80 79 76 91
19 57 88 90 40 33 65 92 86 90 101 109 112 124 132 134 138 117 117 120 112 104 113 127 145 124 108 85 74 65 74 75 76 94 110 139 147 158 168 169 157 143 134 132 130 109 94 100 84 76 74 74 83 93
26 61 107 67 9 8 30 34 22 39 72 63 70 86 79 80 71 77 69 77 76 76 95 99 90 80 80 82 74 72 71 81 130 152 164 179 177 197 202 170 150 136 133 127 116 112 85 74 76 78 90 99 107 106
36 77 78 31 42 34 19 25 33 25 24 43 49 52 50 56 64 66 63 64 81 84 91 81 94 113 125 138 140 132 156 118 126 114 127 159 178 185 177 161 147 136 119 98 83 76 74 77 88 101 108 110 113 108
34 57 23 50 33 37 40 56 37 31 48 47 60 60 71 79 81 77 67 89 98 107 112 121 121 129 163 187 193 173 142 163 179 202 240 196 170 168 169 150 127 109 90 80 74 80 86 98 112 116 110 115 117 120
4 20 32 62 54 72 49 64 66 68 63 57 65 80 86 93 97 94 116 105 110 118 129 140 163 168 174 183 188 204 185 187 201 199 191 184 172 148 126 109 93 91 90 98 103 108 106 108 108 116 127 127 113 104
6 29 48 68 93 87 75 108 83 100 89 93 99 110 113 112 97 136 142 130 117 126 125 125 132 173 184 187 182 177 186 167 168 182 158 128 126 121 108 101 100 111 118 108 109 111 108 111 124 130 123 113 100 81
23 51 61 85 82 93 115 118 132 122 128 116 121 115 92 96 130 136 137 123 123 126 128 130 138 148 148 145 153 161 163 137 127 135 143 125 113 112 128 127 122 127 120 121 130 130 132 126 121 111 106 89 70 55
36 30 36 23 32 52 47 90 90 77 71 71 47 41 48 74 113 134 91 90 96 136 158 140 122 136 158 129 111 114 116 99 95 112 118 139 147 130 129 133 127 119 110 90 92 108 110 106 104 97 83 71 67 62
-4 -12 -24 -11 -16 -19 -18 -21 -16 -1 -10 -14 8 28 22 45 56 52 46 69 65 80 91 95 80 78 86 97 102 97 99 116 130 135 137 143 142 138 125 116 107 84 86 94 94 101 96 89 79 65 58 65 72 80
5 0 1 -13 7 11 19 24 19 21 23 23 24 42 45 53 41 42 51 40 55 63 74 83 93 99 107 108 102 95 123 140 165 152 142 135 118 102 92 77 76 82 88 90 88 85 78 71 64 59 64 70 73 87
13 0 7 -10 -13 -1 2 15 21 25 16 19 31 35 40 45 40 38 52 59 67 71 77 83 98 96 114 127 145 152 132 115 126 151 149 126 118 100 95 96 87 81 84 83 80 76 63 68 78 83 84 78 77 86
-2 -14 12 8 12 10 14 18 11 6 24 43 63 74 77 70 86 87 88 100 104 104 94 92 82 81 92 106 118 135 136 127 118 121 107 96 81 77 74 72 66 67 75 76 80 85 85 94 93 103 104 102 102 100
-6 7 11 11 18 17 23 18 38 55 66 77 94 94 88 84 102 134 134 111 100 99 104 117 131 119 133 139 134 130 124 91 79 60 52 66 68 62 57 57 64 72 76 76 79 80 80 84 87 88 92 97 97 95
21 26 26 26 28 41 71 81 77 87 99 104 115 111 109 109 113 92 103 92 98 121 115 116 131 123 83 76 74 68 66 71 72 66 59 58 54 54 64 74 79 76 73 74 79 79 78 78 77 81 83 83 81 82
47 54 63 57 56 73 74 86 107 97 129 125 122 106 103 98 92 77 78 92 101 113 120 110 85 72 61 53 55 60 57 54 44 40 44 47 51 54 63 67 66 68 72 77 78 78 77 77 77 77 74 74 73 75
Wind_Speed
77 73 82 80 76 70 66 58 55 54 54 64 64 59 54 60 56 46 39 41 43 45 42 46 45 48 42 41 38 28 27 37 34 34 35 34 35 28 33 33 34 35 36 40 40 47 61 31 32 42 43 45 39 30
83 80 77 70 63 56 52 47 43 36 40 50 53 48 49 45 53 43 40 32 29 36 38 31 24 28 36 35 29 27 33 27 22 31 34 31 37 34 36 45 34 43 35 44 33 43 39 34 43 41 44 46 44 41
75 68 65 59 53 46 41 33 33 19 31 41 41 37 46 40 45 48 33 34 29 29 30 34 35 30 26 29 28 30 34 24 26 28 26 33 43 33 43 44 41 38 33 43 47 45 44 43 43 46 45 48 48 47
67 59 54 50 40 38 32 29 22 27 25 26 26 28 35 36 43 42 36 34 30 30 36 38 33 31 38 31 29 28 18 20 19 28 34 37 43 32 43 43 41 42 35 44 49 54 53 47 47 51 50 48 48 47
51 46 40 35 30 25 19 28 23 18 15 15 21 24 31 35 40 24 23 26 30 36 37 34 28 29 29 23 20 17 12 21 28 35 39 40 36 37 43 42 46 38 46 52 62 58 56 59 57 56 53 52 51 45
37 34 31 27 25 23 19 25 22 14 15 16 20 22 24 27 35 45 34 28 24 26 24 34 32 31 28 23 20 23 27 30 33 35 39 37 36 39 44 47 47 48 50 51 58 57 57 58 56 55 55 52 46 41
28 26 24 22 19 16 14 16 16 19 22 19 14 14 17 21 26 34 34 32 30 25 28 28 32 34 33 31 32 34 34 35 37 38 41 39 40 37 44 52 58 61 61 58 56 54 55 54 59 57 48 44 41 38
24 22 18 17 14 15 12 12 11 11 13 15 14 12 10 9 7 18 21 24 24 19 27 30 33 31 34 34 35 38 36 36 39 37 38 41 38 41 49 53 61 62 61 46 63 54 54 52 51 48 42 38 39 39
15 15 14 19 18 10 11 6 9 8 10 12 16 15 18 19 25 26 30 26 20 23 30 32 30 34 32 31 33 34 36 40 38 40 41 39 42 47 50 58 61 62 60 60 54 51 48 49 48 46 41 38 38 36
11 13 19 20 14 16 8 11 12 16 20 20 21 23 24 27 31 30 28 30 30 32 29 30 28 31 31 32 35 36 38 39 44 41 38 41 46 39 47 50 52 56 58 49 47 51 48 48 46 44 41 39 38 37
8 13 10 15 17 17 17 17 19 24 22 25 27 26 25 30 27 28 30 31 35 33 34 31 32 33 35 36 35 37 37 40 46 45 41 45 46 45 43 46 47 47 48 47 44 42 41 40 40 41 41 39 40 43
3 5 9 12 18 19 26 30 27 24 26 21 13 16 26 30 30 32 35 34 34 35 33 33 33 34 34 33 36 37 42 40 49 37 42 48 41 34 37 39 40 42 43 42 42 41 40 40 40 42 43 45 47 47
11 6 7 10 18 18 17 16 14 9 21 27 28 29 31 35 35 37 38 38 37 35 35 34 35 35 33 32 35 36 40 43 33 43 48 46 29 32 32 35 36 39 41 42 44 45 46 48 49 50 52 51 50 50
15 13 11 9 12 16 18 16 19 24 24 23 29 32 37 36 37 40 38 36 34 31 28 28 32 34 34 33 34 38 37 36 44 47 47 35 28 28 29 33 35 39 42 45 47 48 50 51 52 52 53 53 55 57
13 15 13 16 16 14 15 19 21 21 27 30 35 42 43 34 33 31 29 29 29 28 29 29 33 34 34 34 34 33 36 41 43 45 39 32 24 23 28 33 36 42 45 47 48 50 52 53 54 55 56 56 57 60
15 15 19 22 20 18 17 19 21 22 27 31 32 33 29 28 30 30 28 28 29 26 27 29 29 32 33 33 35 38 41 46 41 32 29 26 24 25 28 31 38 42 43 46 48 50 52 54 54 54 55 63 68 71
17 19 31 28 22 19 21 23 24 25 27 30 30 26 27 25 25 26 26 27 25 25 28 30 34 35 32 38 39 37 42 37 28 25 26 27 27 28 29 32 38 40 42 45 47 49 52 53 56 63 71 74 77 78
20 28 32 29 22 21 22 27 26 27 28 28 28 29 29 26 25 28 28 30 29 31 32 35 31 38 41 44 44 37 32 27 25 26 29 30 31 29 29 32 35 38 41 45 49 51 56 61 66 70 73 79 81 83
26 31 33 29 23 22 26 30 30 29 30 28 27 28 26 26 27 27 29 30 29 27 26 33 38 40 39 35 31 27 25 24 25 30 31 33 31 30 31 34 37 41 45 49 52 56 59 62 66 70 76 80 86 85
30 34 34 32 27 25 27 29 29 28 29 29 27 28 28 28 28 28 29 31 31 30 33 36 36 33 32 31 29 27 25 22 24 29 32 34 33 34 37 38 41 42 45 49 53 58 62 66 69 75 80 83 87 91
33 34 33 30 28 29 27 30 29 28 26 27 26 27 29 28 28 29 31 33 32 33 33 33 29 28 29 31 31 30 31 27 31 32 31 32 33 35 39 41 42 45 50 55 60 65 70 74 77 80 84 86 85 85
37 38 34 34 30 30 30 34 29 29 31 29 30 31 32 32 33 33 36 36 36 36 35 33 29 28 31 34 35 35 33 32 33 33 31 30 36 39 42 45 48 52 56 61 66 71 75 77 80 82 85 88 86 86
40 38 35 38 32 34 35 38 34 36 37 35 34 37 38 38 37 38 39 39 38 39 37 34 32 28 28 29 32 35 36 34 36 36 35 36 37 38 42 46 50 57 62 67 68 73 77 79 81 85 86 87 87 88
42 37 39 38 38 37 39 39 39 39 38 41 43 45 44 43 41 43 45 42 41 39 37 32 28 29 30 34 37 38 37 34 34 37 38 38 41 44 46 50 54 59 65 68 71 76 79 82 84 85 85 85 85 84
38 42 38 41 40 42 44 44 45 45 48 48 50 49 46 42 48 48 48 44 43 42 39 34 33 33 33 34 35 37 38 38 38 39 43 42 43 47 53 58 59 61 68 74 78 81 83 82 82 82 83 82 82 79
39 43 39 41 43 43 43 44 44 47 48 49 47 45 42 45 48 49 45 43 40 39 39 36 33 33 35 35 35 39 42 40 38 42 44 45 50 54 61 67 71 70 71 73 78 82 82 81 81 81 79 77 75 74
37 38 40 39 40 38 40 40 40 43 45 46 43 43 43 47 46 41 37 41 36 36 35 37 37 35 33 35 37 39 41 42 42 42 41 45 49 53 59 67 72 72 72 73 75 76 78 78 77 74 73 71 69 69
36 37 41 43 38 37 38 39 39 39 40 40 38 41 41 40 38 35 36 35 32 32 34 36 37 35 34 37 39 40 41 41 42 44 46 50 52 55 60 64 65 69 70 71 71 72 71 69 68 68 67 68 68 65
36 39 38 38 38 37 37 37 36 36 39 36 36 36 34 34 34 34 36 34 34 34 36 37 38 38 39 42 45 47 46 49 54 59 63 65 66 63 65 67 68 68 69 70 69 68 66 63 62 62 62 62 61 61
37 38 37 38 37 37 36 37 39 39 38 35 32 31 32 34 39 39 36 37 38 38 39 41 43 44 45 46 48 50 51 52 56 60 65 67 67 66 66 67 67 67 67 67 68 67 63 60 60 60 61 60 61 61
39 39 39 39 38 37 40 42 38 35 35 37 38 37 35 34 36 40 40 40 40 41 42 43 44 44 46 48 51 54 56 54 57 58 57 60 62 61 63 63 63 63 63 63 63 63 62 60 58 58 58 59 59 58
42 41 43 43 41 44 46 43 44 43 43 42 43 40 39 41 43 42 44 40 41 43 43 43 45 46 46 48 48 50 52 57 61 62 61 60 60 59 59 58 57 58 60 60 59 59 57 56 55 55 55 55 55 55
42 44 44 45 45 45 47 48 46 44 44 44 44 42 41 40 40 37 37 38 40 42 44 46 45 45 47 49 52 52 54 58 62 62 58 53 53 57 56 53 54 56 57 56 55 55 56 55 54 53 53 53 53 53
Wind_Direction
156 158 161 164 167 170 175 181 187 194 199 200 203 204 200 201 210 222 229 237 237 232 233 234 236 235 241 245 250 262 266 272 280 287 295 300 305 317 315 320 323 321 322 321 325 321 319 347 348 332 335 335 335 335
155 157 160 162 165 168 174 180 186 193 198 200 202 201 198 182 210 222 230 238 242 235 235 236 248 258 257 257 256 256 275 286 300 299 299 312 307 316 316 310 325 316 322 322 323 325 332 332 330 333 332 331 330 324
155 157 158 160 164 168 172 175 184 181 194 197 199 195 198 178 209 222 224 231 239 231 234 237 243 260 280 272 275 270 275 296 299 312 315 313 305 320 311 314 319 326 328 321 324 329 326 325 324 324 322 320 322 322
154 156 158 160 159 165 170 173 175 181 187 189 186 179 180 189 210 217 228 240 244 237 239 242 261 265 279 279 283 290 297 306 316 314 310 310 308 319 315 320 321 327 330 323 320 323 326 331 330 329 327 326 325 324
151 152 151 151 152 152 150 173 172 168 163 144 162 167 181 193 198 196 234 256 251 245 243 242 261 282 294 293 299 311 316 305 304 304 306 307 317 319 319 320 320 324 321 319 318 326 325 326 330 330 330 328 328 327
145 145 145 145 148 155 158 172 174 158 122 124 139 139 149 169 193 210 232 252 266 257 260 248 267 274 288 302 310 307 308 307 308 309 309 316 322 317 315 315 328 330 327 325 321 326 325 326 329 330 329 331 334 336
132 128 127 140 139 142 140 156 160 176 179 178 162 164 189 205 222 232 243 251 266 272 265 265 267 277 286 292 296 300 308 307 308 309 308 312 316 318 315 312 323 325 326 327 331 331 329 335 331 333 337 341 346 350
117 115 126 145 146 157 137 141 142 121 120 138 140 131 118 109 199 248 270 279 277 283 277 272 278 282 294 289 291 303 302 307 312 311 315 314 318 317 313 321 323 325 326 332 332 335 333 337 340 343 348 351 352 353
146 147 160 184 190 178 172 144 180 190 200 209 215 226 239 255 250 250 262 276 311 291 274 279 278 281 299 298 303 306 308 303 312 307 311 316 315 312 319 322 325 327 328 325 334 340 344 344 346 348 351 355 354 355
161 184 207 210 210 207 215 230 236 234 239 245 247 250 250 251 248 261 276 276 284 288 294 287 295 293 304 303 303 306 310 307 304 309 319 312 313 326 330 332 334 335 337 340 337 338 344 345 350 354 356 360 1 358
171 201 212 218 227 226 225 246 252 248 253 252 251 258 246 258 272 279 275 279 280 283 291 294 297 298 308 302 303 309 309 313 305 308 309 311 313 323 336 340 344 347 351 354 357 0 3 3 2 1 359 358 353 348
183 227 232 237 239 239 243 249 257 261 257 267 277 277 279 281 285 283 280 284 289 288 297 299 303 307 307 313 309 311 306 310 305 320 313 312 323 336 342 348 353 357 2 8 13 12 10 8 4 359 353 348 344 343
33 356 294 270 240 240 248 250 254 262 268 270 279 278 281 281 278 276 275 285 291 298 300 302 303 308 314 317 313 312 308 306 323 312 311 319 333 339 346 349 353 356 359 359 357 356 355 352 350 348 346 347 347 346
17 10 3 305 267 248 246 257 259 255 263 289 283 275 279 282 286 287 289 295 301 305 308 310 308 308 314 313 313 310 313 317 310 309 313 325 331 339 348 348 351 351 352 351 351 351 351 350 349 350 349 349 347 344
0 358 338 314 297 295 288 289 298 298 283 285 285 273 275 290 298 307 311 312 314 314 310 311 312 313 314 312 316 316 316 311 314 316 324 331 337 343 344 346 348 348 348 349 350 350 350 351 351 351 352 352 351 348
300 316 318 294 289 297 299 293 300 295 293 292 294 292 303 302 299 302 310 314 317 319 321 317 317 317 313 318 313 310 311 311 320 329 340 346 344 342 340 342 344 346 349 350 351 351 351 351 352 352 352 348 344 342
335 305 301 301 291 302 295 290 294 299 299 301 301 314 311 313 311 314 320 322 330 321 316 320 314 312 322 316 314 319 317 322 331 337 340 345 344 343 344 344 345 349 351 352 353 354 353 351 349 345 340 340 340 340
324 308 316 314 308 316 314 312 305 304 304 308 304 307 314 321 318 318 326 326 323 317 316 313 323 312 312 310 314 322 332 342 346 346 344 345 346 350 352 352 354 354 353 352 350 349 347 345 342 340 341 340 340 339
337 335 333 329 326 324 314 312 311 301 304 307 310 312 318 325 332 332 333 337 338 338 333 324 317 315 316 326 330 335 338 340 340 342 349 352 356 358 358 358 356 352 350 348 347 345 345 345 343 342 341 341 338 339
335 339 334 335 330 327 322 320 328 317 308 312 318 315 317 318 324 329 332 332 332 329 326 321 321 329 332 338 339 339 341 350 346 341 343 348 352 354 352 351 349 349 348 346 346 345 343 341 342 341 341 340 339 338
333 321 319 325 333 340 332 322 324 325 326 321 324 323 321 323 323 322 324 330 326 326 325 331 336 344 349 349 350 351 347 347 338 336 336 339 347 349 349 349 348 347 344 342 340 339 339 338 339 340 339 339 340 340
318 313 327 327 332 329 327 328 325 326 320 321 320 320 316 313 315 316 321 319 320 323 324 325 328 333 335 337 344 348 351 353 352 353 354 351 340 340 341 343 342 340 340 339 338 337 337 338 338 339 339 338 340 340
324 331 330 325 323 320 315 319 317 316 308 310 315 311 310 311 313 315 311 315 316 320 322 324 328 336 340 345 349 349 350 350 346 346 348 348 347 346 343 342 342 338 337 337 339 337 337 338 338 338 339 339 340 341
338 331 322 319 321 311 316 317 317 315 313 308 306 305 306 307 313 309 306 312 317 324 323 326 330 329 333 334 334 337 342 347 348 346 344 341 339 339 341 339 340 340 339 338 338 337 337 337 338 338 339 340 341 342
329 323 328 320 325 318 312 311 309 309 306 306 305 304 306 313 306 306 306 313 319 321 323 327 327 327 326 330 334 337 340 339 337 337 339 340 338 336 335 336 339 340 339 336 336 336 336 338 339 340 340 341 342 343
328 328 327 324 323 321 318 314 314 315 314 310 309 313 315 311 309 307 312 319 322 326 329 329 330 331 332 333 332 332 333 337 339 335 336 339 337 334 333 332 332 334 339 338 336 335 336 338 339 340 341 343 345 346
336 335 343 344 340 337 329 329 327 322 320 316 318 318 315 309 310 318 328 330 327 331 338 339 336 335 336 337 340 341 340 341 339 339 343 342 342 342 339 335 334 335 338 338 337 337 337 338 339 341 342 344 346 347
354 353 344 346 349 352 338 336 334 333 334 337 334 325 321 320 323 335 338 344 351 351 349 349 348 352 350 346 344 344 345 347 347 345 342 340 340 339 340 339 339 339 339 340 340 339 340 340 341 343 344 345 347 350
353 351 356 355 357 360 359 356 356 356 347 349 346 344 345 349 346 346 343 347 349 350 347 345 344 347 346 345 344 344 343 337 334 331 330 330 332 334 338 338 339 340 342 341 343 343 343 345 346 346 347 349 351 353
343 336 345 342 346 351 2 1 356 350 353 2 9 7 1 357 343 341 344 342 342 342 341 339 337 336 337 337 338 339 343 344 340 336 332 332 333 335 336 338 339 341 342 343 343 345 347 349 349 350 351 353 354 354
342 344 341 342 342 349 349 346 349 353 352 348 346 344 343 344 343 345 345 344 342 341 340 340 341 342 342 341 340 338 337 341 342 339 338 337 337 338 338 340 341 343 344 345 346 347 348 350 352 354 355 355 356 356
344 343 339 338 341 340 340 341 338 334 334 334 333 336 336 333 329 333 336 342 342 341 343 344 342 342 343 343 346 345 343 340 340 339 338 338 339 340 342 343 344 345 346 347 348 350 352 353 355 356 357 357 358 358
343 340 339 336 336 337 337 337 336 336 336 335 335 336 335 335 335 341 350 352 349 346 344 344 345 347 346 343 342 342 343 341 339 339 340 341 342 342 344 345 346 346 347 348 350 351 352 353 354 356 357 357 358 358